| time (UTC) | temp C | wind direction | speed KPH | gust KPH | rain 1hr cm | rain 24hr cm | rain mn cm | humidity % | barometer mb |
| 20260905120659 | 5 | 138 | 1.6 | 6.4 | 0.00 | 0.15 | 0.03 | 95 | 1014.4 |
| 20260905120152 | 5 | 140 | 0.0 | 4.8 | 0.00 | 0.15 | 0.03 | 95 | 1014.4 |
| 20260905115646 | 5 | 139 | 0.0 | 3.2 | 0.00 | 0.15 | 0.03 | 95 | 1014.3 |
| 20260905115140 | 5 | 138 | 0.0 | 3.2 | 0.00 | 0.15 | 0.03 | 95 | 1014.2 |
| 20260905114634 | 5 | 138 | 0.0 | 4.8 | 0.00 | 0.15 | 0.03 | 95 | 1014.3 |
| 20260905114128 | 5 | 130 | 1.6 | 6.4 | 0.00 | 0.15 | 0.03 | 95 | 1014.3 |
| 20260905113621 | 5 | 128 | 1.6 | 6.4 | 0.00 | 0.15 | 0.03 | 95 | 1014.3 |
| 20260905113117 | 5 | 134 | 1.6 | 4.8 | 0.00 | 0.15 | 0.03 | 95 | 1014.3 |
| 20260905112609 | 5 | 142 | 0.0 | 3.2 | 0.00 | 0.15 | 0.03 | 95 | 1014.4 |
| 20260905112106 | 5 | 142 | 0.0 | 1.6 | 0.00 | 0.15 | 0.03 | 95 | 1014.4 |
| 20260905111601 | 5 | 142 | 0.0 | 1.6 | 0.00 | 0.15 | 0.03 | 95 | 1014.4 |
| 20260905111051 | 5 | 142 | 0.0 | 1.6 | 0.00 | 0.15 | 0.03 | 95 | 1014.4 |
| 20260905110546 | 5 | 142 | 0.0 | 3.2 | 0.00 | 0.15 | 0.03 | 95 | 1014.4 |
| 20260905110040 | 5 | 142 | 0.0 | 3.2 | 0.00 | 0.15 | 0.03 | 95 | 1014.4 |
| 20260905105534 | 5 | 142 | 0.0 | 1.6 | 0.00 | 0.15 | 0.03 | 95 | 1014.4 |
| 20260905105029 | 5 | 142 | 0.0 | 0.0 | 0.00 | 0.15 | 0.03 | 95 | 1014.5 |
| 20260905104749 | 5 | 142 | 0.0 | 0.0 | 0.00 | 0.15 | 0.03 | 95 | 1014.5 |
| 20260905104021 | 5 | 142 | 0.0 | 0.0 | 0.00 | 0.15 | 0.03 | 95 | 1014.5 |
| 20260905103511 | 5 | 142 | 0.0 | 0.0 | 0.00 | 0.15 | 0.03 | 95 | 1014.5 |
| 20260905103003 | 6 | 142 | 0.0 | 4.8 | 0.00 | 0.15 | 0.03 | 95 | 1014.5 |
| 20260905102459 | 6 | 142 | 1.6 | 6.4 | 0.00 | 0.15 | 0.03 | 95 | 1014.4 |
| 20260905101955 | 6 | 143 | 1.6 | 6.4 | 0.00 | 0.15 | 0.03 | 95 | 1014.4 |
| 20260905101446 | 6 | 157 | 1.6 | 6.4 | 0.00 | 0.15 | 0.03 | 95 | 1014.3 |
| 20260905100940 | 6 | 159 | 1.6 | 3.2 | 0.00 | 0.15 | 0.03 | 95 | 1014.4 |
| 20260905100659 | 6 | 150 | 0.0 | 3.2 | 0.00 | 0.15 | 0.03 | 95 | 1014.4 |
| 20260905095928 | 6 | 147 | 1.6 | 4.8 | 0.00 | 0.15 | 0.03 | 95 | 1014.4 |
| 20260905095422 | 6 | 144 | 1.6 | 6.4 | 0.00 | 0.15 | 0.03 | 95 | 1014.4 |
| 20260905094919 | 6 | 150 | 1.6 | 6.4 | 0.00 | 0.15 | 0.03 | 95 | 1014.4 |
| 20260905094411 | 6 | 146 | 0.0 | 3.2 | 0.03 | 0.15 | 0.03 | 95 | 1014.4 |
| 20260905093904 | 6 | 146 | 1.6 | 6.4 | 0.03 | 0.15 | 0.03 | 95 | 1014.4 |
| 20260905093627 | 6 | 144 | 3.2 | 6.4 | 0.03 | 0.15 | 0.03 | 95 | 1014.4 |
| 20260905092853 | 6 | 144 | 3.2 | 6.4 | 0.03 | 0.15 | 0.03 | 95 | 1014.5 |
| 20260905092611 | 6 | 140 | 3.2 | 6.4 | 0.03 | 0.15 | 0.03 | 95 | 1014.4 |
| 20260905091841 | 6 | 142 | 1.6 | 6.4 | 0.03 | 0.15 | 0.03 | 95 | 1014.4 |
| 20260905091342 | 6 | 139 | 0.0 | 3.2 | 0.03 | 0.15 | 0.03 | 95 | 1014.4 |
| 20260905090841 | 6 | 139 | 1.6 | 4.8 | 0.03 | 0.15 | 0.03 | 95 | 1014.5 |
| 20260905090608 | 6 | 139 | 0.0 | 4.8 | 0.03 | 0.15 | 0.03 | 95 | 1014.5 |
| 20260905085841 | 6 | 139 | 0.0 | 1.6 | 0.03 | 0.15 | 0.03 | 95 | 1014.4 |
| 20260905085605 | 6 | 139 | 0.0 | 1.6 | 0.03 | 0.15 | 0.03 | 95 | 1014.5 |
| 20260905084842 | 6 | 139 | 0.0 | 3.2 | 0.03 | 0.15 | 0.03 | 95 | 1014.5 |
| 20260905084341 | 6 | 139 | 1.6 | 4.8 | 0.00 | 0.13 | 0.00 | 94 | 1014.5 |
| 20260905084039 | 6 | 139 | 1.6 | 4.8 | 0.00 | 0.13 | 0.00 | 94 | 1014.4 |
| 20260905082839 | 7 | 138 | 1.6 | 6.4 | 0.00 | 0.13 | 0.00 | 94 | 1014.2 |
| 20260905082605 | 7 | 145 | 1.6 | 6.4 | 0.00 | 0.13 | 0.00 | 94 | 1014.1 |
| 20260905081838 | 7 | 148 | 1.6 | 4.8 | 0.00 | 0.13 | 0.00 | 94 | 1014.2 |
| 20260905081339 | 7 | 148 | 1.6 | 4.8 | 0.00 | 0.13 | 0.00 | 95 | 1014.2 |
| 20260905080835 | 7 | 148 | 0.0 | 3.2 | 0.00 | 0.13 | 0.00 | 95 | 1014.0 |
| 20260905080335 | 7 | 148 | 0.0 | 4.8 | 0.00 | 0.13 | 0.00 | 95 | 1014.1 |
| 20260905080106 | 7 | 147 | 1.6 | 4.8 | 0.00 | 0.13 | 0.00 | 95 | 1014.0 |
| 20260905075337 | 7 | 148 | 1.6 | 4.8 | 0.00 | 0.13 | 0.00 | 94 | 1014.1 |
| 20260905074835 | 7 | 148 | 1.6 | 4.8 | 0.00 | 0.13 | 0.00 | 94 | 1013.9 |
| 20260905074335 | 7 | 147 | 1.6 | 6.4 | 0.00 | 0.13 | 0.00 | 94 | 1014.0 |
| 20260905073835 | 7 | 147 | 1.6 | 6.4 | 0.00 | 0.13 | 0.00 | 94 | 1013.8 |
| 20260905073335 | 7 | 169 | 1.6 | 6.4 | 0.00 | 0.13 | 0.00 | 94 | 1013.9 |
| 20260905073059 | 7 | 171 | 1.6 | 4.8 | 0.00 | 0.13 | 0.00 | 94 | 1013.8 |
| 20260905072334 | 7 | 171 | 1.6 | 4.8 | 0.00 | 0.13 | 0.00 | 94 | 1013.6 |
| 20260905072057 | 7 | 171 | 1.6 | 3.2 | 0.00 | 0.13 | 0.00 | 94 | 1013.6 |
| 20260905071335 | 7 | 171 | 1.6 | 4.8 | 0.00 | 0.13 | 0.00 | 94 | 1013.6 |
| 20260905070836 | 7 | 172 | 1.6 | 4.8 | 0.00 | 0.13 | 0.00 | 94 | 1013.6 |
| 20260905070555 | 7 | 191 | 0.0 | 3.2 | 0.00 | 0.13 | 0.00 | 93 | 1013.5 |
| 20260905065835 | 7 | 192 | 1.6 | 4.8 | 0.00 | 0.13 | 0.13 | 93 | 1013.5 |
| 20260905065334 | 7 | 192 | 1.6 | 4.8 | 0.00 | 0.13 | 0.13 | 93 | 1013.5 |
| 20260905064832 | 7 | 196 | 0.0 | 3.2 | 0.00 | 0.13 | 0.13 | 93 | 1013.3 |
| 20260905064815 | 7 | 197 | 0.0 | 1.6 | 0.00 | 0.13 | 0.13 | 93 | 1013.3 |
| 20260905064058 | 7 | 197 | 0.0 | 1.6 | 0.00 | 0.13 | 0.13 | 93 | 1013.3 |
| 20260905063330 | 7 | 197 | 0.0 | 1.6 | 0.00 | 0.13 | 0.13 | 92 | 1013.3 |
| 20260905062831 | 7 | 199 | 0.0 | 1.6 | 0.00 | 0.13 | 0.13 | 92 | 1013.3 |
| 20260905062331 | 7 | 199 | 0.0 | 0.0 | 0.00 | 0.13 | 0.13 | 91 | 1013.2 |
| 20260905061828 | 7 | 199 | 0.0 | 1.6 | 0.00 | 0.13 | 0.13 | 91 | 1013.2 |
| 20260905061556 | 7 | 199 | 1.6 | 6.4 | 0.00 | 0.13 | 0.13 | 92 | 1013.3 |
| 20260905060822 | 7 | 199 | 1.6 | 6.4 | 0.00 | 0.13 | 0.13 | 92 | 1013.2 |
| 20260905060547 | 7 | 198 | 1.6 | 4.8 | 0.00 | 0.13 | 0.13 | 92 | 1013.2 |
| 20260905055810 | 8 | 197 | 1.6 | 4.8 | 0.00 | 0.13 | 0.13 | 92 | 1013.3 |
| 20260905055306 | 8 | 194 | 3.2 | 8.0 | 0.00 | 0.13 | 0.13 | 92 | 1013.3 |
| 20260905054758 | 8 | 191 | 1.6 | 8.0 | 0.00 | 0.13 | 0.13 | 92 | 1013.4 |
| 20260905054746 | 8 | 226 | 1.6 | 4.8 | 0.00 | 0.13 | 0.13 | 92 | 1013.5 |
| 20260905053746 | 8 | 228 | 0.0 | 4.8 | 0.00 | 0.13 | 0.13 | 92 | 1013.5 |
| 20260905053240 | 8 | 233 | 1.6 | 3.2 | 0.00 | 0.13 | 0.13 | 92 | 1013.4 |
| 20260905052733 | 8 | 233 | 1.6 | 3.2 | 0.00 | 0.13 | 0.13 | 93 | 1013.4 |
| 20260905052228 | 8 | 245 | 0.0 | 3.2 | 0.00 | 0.13 | 0.13 | 92 | 1013.3 |
| 20260905051722 | 8 | 249 | 0.0 | 3.2 | 0.03 | 0.13 | 0.13 | 92 | 1013.4 |
| 20260905051216 | 8 | 251 | 0.0 | 1.6 | 0.03 | 0.13 | 0.13 | 92 | 1013.2 |
| 20260905050711 | 8 | 251 | 0.0 | 1.6 | 0.03 | 0.13 | 0.13 | 92 | 1013.2 |
| 20260905050204 | 9 | 251 | 0.0 | 1.6 | 0.05 | 0.13 | 0.13 | 91 | 1013.4 |
| 20260905050151 | 9 | 251 | 0.0 | 1.6 | 0.08 | 0.13 | 0.13 | 91 | 1013.3 |
| 20260905045152 | 9 | 251 | 0.0 | 1.6 | 0.08 | 0.13 | 0.13 | 91 | 1013.3 |
| 20260905044646 | 9 | 251 | 1.6 | 4.8 | 0.08 | 0.13 | 0.13 | 91 | 1013.3 |
| 20260905044140 | 9 | 252 | 1.6 | 4.8 | 0.08 | 0.13 | 0.13 | 91 | 1013.3 |
| 20260905043634 | 9 | 253 | 1.6 | 4.8 | 0.08 | 0.13 | 0.13 | 90 | 1013.3 |
| 20260905043129 | 9 | 253 | 0.0 | 4.8 | 0.08 | 0.13 | 0.13 | 90 | 1013.2 |
| 20260905042622 | 9 | 247 | 0.0 | 4.8 | 0.08 | 0.13 | 0.13 | 90 | 1013.2 |
| 20260905042115 | 10 | 245 | 0.0 | 4.8 | 0.08 | 0.13 | 0.13 | 89 | 1013.2 |
| 20260905041610 | 10 | 242 | 0.0 | 0.0 | 0.05 | 0.10 | 0.10 | 88 | 1013.2 |
| 20260905041104 | 10 | 242 | 0.0 | 0.0 | 0.05 | 0.10 | 0.10 | 87 | 1013.1 |
| 20260905040558 | 10 | 240 | 0.0 | 0.0 | 0.05 | 0.10 | 0.10 | 87 | 1013.1 |
| 20260905040052 | 10 | 238 | 0.0 | 4.8 | 0.00 | 0.05 | 0.08 | 85 | 1013.3 |
| 20260905035747 | 10 | 238 | 1.6 | 6.4 | 0.00 | 0.05 | 0.05 | 84 | 1013.3 |
| 20260905034534 | 10 | 226 | 3.2 | 8.0 | 0.00 | 0.05 | 0.05 | 84 | 1013.4 |
| 20260905034254 | 10 | 203 | 3.2 | 11.3 | 0.00 | 0.05 | 0.05 | 85 | 1013.4 |
| 20260905033522 | 10 | 207 | 4.8 | 11.3 | 0.00 | 0.05 | 0.05 | 85 | 1013.4 |
| 20260905033015 | 10 | 233 | 4.8 | 11.3 | 0.00 | 0.05 | 0.05 | 85 | 1013.3 |
| 20260905032509 | 10 | 217 | 4.8 | 11.3 | 0.00 | 0.05 | 0.05 | 85 | 1013.2 |
| 20260905032008 | 10 | 220 | 3.2 | 9.7 | 0.00 | 0.05 | 0.05 | 85 | 1013.1 |
| 20260905031508 | 10 | 238 | 4.8 | 12.9 | 0.00 | 0.05 | 0.05 | 85 | 1013.0 |
| 20260905031006 | 10 | 249 | 6.4 | 12.9 | 0.00 | 0.05 | 0.05 | 85 | 1013.0 |
| 20260905030507 | 10 | 256 | 4.8 | 12.9 | 0.00 | 0.05 | 0.05 | 84 | 1013.0 |
| 20260905030005 | 10 | 256 | 3.2 | 9.7 | 0.00 | 0.05 | 0.05 | 83 | 1012.9 |
| 20260905025506 | 11 | 279 | 3.2 | 9.7 | 0.00 | 0.05 | 0.05 | 82 | 1012.7 |
| 20260905025006 | 11 | 291 | 3.2 | 6.4 | 0.00 | 0.05 | 0.05 | 80 | 1012.7 |
| 20260905024504 | 11 | 297 | 1.6 | 6.4 | 0.00 | 0.05 | 0.05 | 79 | 1012.6 |
| 20260905024004 | 11 | 298 | 1.6 | 6.4 | 0.00 | 0.05 | 0.05 | 78 | 1012.6 |
| 20260905023504 | 11 | 298 | 3.2 | 9.7 | 0.00 | 0.05 | 0.05 | 77 | 1012.4 |
| 20260905023004 | 12 | 297 | 3.2 | 9.7 | 0.00 | 0.05 | 0.05 | 77 | 1012.4 |
| 20260905022504 | 12 | 294 | 3.2 | 9.7 | 0.00 | 0.05 | 0.05 | 76 | 1012.4 |
| 20260905022004 | 12 | 283 | 3.2 | 11.3 | 0.00 | 0.05 | 0.05 | 75 | 1012.6 |
| 20260905021504 | 12 | 232 | 3.2 | 11.3 | 0.00 | 0.05 | 0.05 | 73 | 1012.6 |
| 20260905021004 | 13 | 281 | 1.6 | 9.7 | 0.00 | 0.05 | 0.05 | 74 | 1012.4 |
| 20260905020504 | 13 | 261 | 0.0 | 4.8 | 0.00 | 0.05 | 0.05 | 69 | 1012.6 |
| 20260905020003 | 13 | 268 | 1.6 | 4.8 | 0.00 | 0.05 | 0.05 | 67 | 1012.3 |
| 20260905015505 | 13 | 259 | 1.6 | 8.0 | 0.00 | 0.05 | 0.05 | 67 | 1012.3 |
| 20260905015004 | 13 | 257 | 1.6 | 8.0 | 0.00 | 0.05 | 0.05 | 66 | 1012.1 |
| 20260905014504 | 13 | 257 | 1.6 | 6.4 | 0.00 | 0.05 | 0.05 | 66 | 1012.1 |
| 20260905014004 | 13 | 265 | 1.6 | 6.4 | 0.00 | 0.05 | 0.05 | 63 | 1012.0 |
| 20260905013504 | 13 | 273 | 3.2 | 9.7 | 0.00 | 0.05 | 0.05 | 62 | 1012.0 |
| 20260905013002 | 14 | 269 | 3.2 | 9.7 | 0.00 | 0.05 | 0.05 | 60 | 1012.0 |
| 20260905012704 | 15 | 279 | 3.2 | 9.7 | 0.00 | 0.05 | 0.05 | 60 | 1012.0 |
| 20260905011502 | 15 | 294 | 1.6 | 6.4 | 0.00 | 0.05 | 0.05 | 57 | 1011.9 |
| 20260905011227 | 15 | 286 | 3.2 | 6.4 | 0.00 | 0.05 | 0.05 | 58 | 1011.9 |
| 20260905010500 | 15 | 296 | 3.2 | 6.4 | 0.00 | 0.05 | 0.05 | 60 | 1011.9 |
| 20260905005959 | 15 | 324 | 1.6 | 6.4 | 0.00 | 0.05 | 0.05 | 61 | 1011.9 |
| 20260905005459 | 15 | 333 | 1.6 | 6.4 | 0.00 | 0.05 | 0.05 | 63 | 1011.9 |
| 20260905005000 | 14 | 299 | 1.6 | 4.8 | 0.00 | 0.05 | 0.05 | 66 | 1011.7 |
| 20260905004459 | 14 | 299 | 0.0 | 4.8 | 0.00 | 0.05 | 0.05 | 65 | 1011.6 |
| 20260905004219 | 13 | 294 | 0.0 | 4.8 | 0.00 | 0.05 | 0.05 | 68 | 1011.5 |
| 20260905003454 | 13 | 295 | 1.6 | 4.8 | 0.00 | 0.05 | 0.05 | 68 | 1011.5 |
| 20260905002954 | 13 | 296 | 1.6 | 6.4 | 0.00 | 0.05 | 0.05 | 68 | 1011.5 |
| 20260905002453 | 13 | 295 | 3.2 | 9.7 | 0.00 | 0.05 | 0.05 | 71 | 1011.5 |
| 20260905001951 | 13 | 294 | 3.2 | 9.7 | 0.00 | 0.05 | 0.05 | 72 | 1011.5 |
| 20260905001447 | 13 | 285 | 3.2 | 9.7 | 0.00 | 0.05 | 0.05 | 71 | 1011.5 |
| 20260905001430 | 13 | 299 | 3.2 | 11.3 | 0.00 | 0.05 | 0.05 | 70 | 1011.4 |
| 20260905000433 | 13 | 309 | 4.8 | 11.3 | 0.00 | 0.05 | 0.05 | 70 | 1011.5 |
| 20260904235927 | 13 | 282 | 4.8 | 16.1 | 0.00 | 0.05 | 0.05 | 71 | 1011.5 |
| 20260904235425 | 13 | 284 | 6.4 | 16.1 | 0.03 | 0.05 | 0.05 | 70 | 1011.4 |
| 20260904234925 | 13 | 294 | 6.4 | 16.1 | 0.03 | 0.05 | 0.05 | 73 | 1011.4 |
| 20260904234426 | 13 | 295 | 6.4 | 16.1 | 0.05 | 0.05 | 0.05 | 74 | 1011.3 |
| 20260904233936 | 12 | 235 | 8.0 | 16.1 | 0.05 | 0.05 | 0.05 | 77 | 1011.3 |
| 20260904233717 | 12 | 235 | 6.4 | 16.1 | 0.05 | 0.05 | 0.05 | 80 | 1011.1 |
| 20260904233712 | 12 | 265 | 4.8 | 14.5 | 0.05 | 0.05 | 0.05 | 85 | 1011.0 |
| 20260904232426 | 11 | 288 | 4.8 | 12.9 | 0.05 | 0.05 | 0.05 | 84 | 1011.0 |
| 20260904231923 | 11 | 296 | 4.8 | 9.7 | 0.05 | 0.05 | 0.05 | 85 | 1011.0 |
| 20260904231423 | 11 | 272 | 3.2 | 9.7 | 0.05 | 0.05 | 0.05 | 89 | 1011.0 |
| 20260904230923 | 10 | 265 | 3.2 | 9.7 | 0.05 | 0.05 | 0.05 | 88 | 1011.0 |
| 20260904230706 | 10 | 237 | 4.8 | 11.3 | 0.05 | 0.05 | 0.05 | 87 | 1010.9 |
| 20260904225923 | 10 | 208 | 8.0 | 19.3 | 0.05 | 0.05 | 0.05 | 85 | 1010.9 |
| 20260904225423 | 10 | 207 | 11.3 | 27.4 | 0.03 | 0.03 | 0.03 | 83 | 1011.0 |
| 20260904224945 | 11 | 202 | 14.5 | 32.2 | 0.00 | 0.00 | 0.00 | 75 | 1011.0 |
| 20260904224940 | 10 | 242 | 14.5 | 27.4 | 0.03 | 0.03 | 0.03 | 79 | 1011.1 |
| 20260904223932 | 12 | 204 | 14.5 | 32.2 | 0.00 | 0.00 | 0.00 | 66 | 1010.9 |
| 20260904223432 | 14 | 184 | 6.4 | 29.0 | 0.00 | 0.00 | 0.00 | 60 | 1010.9 |
| 20260904222927 | 16 | 181 | 1.6 | 6.4 | 0.00 | 0.00 | 0.00 | 52 | 1010.6 |
| 20260904222434 | 16 | 121 | 1.6 | 9.7 | 0.00 | 0.00 | 0.00 | 51 | 1010.3 |
| 20260904221408 | 16 | 136 | 3.2 | 16.1 | 0.00 | 0.00 | 0.00 | 50 | 1010.4 |
| 20260904220906 | 16 | 150 | 3.2 | 11.3 | 0.00 | 0.00 | 0.00 | 50 | 1010.3 |
| 20260904220401 | 16 | 115 | 4.8 | 16.1 | 0.00 | 0.00 | 0.00 | 50 | 1010.3 |
| 20260904215854 | 17 | 92 | 4.8 | 16.1 | 0.00 | 0.00 | 0.00 | 48 | 1010.3 |
| 20260904215618 | 17 | 86 | 3.2 | 11.3 | 0.00 | 0.00 | 0.00 | 48 | 1010.4 |
| 20260904214837 | 17 | 81 | 4.8 | 16.1 | 0.00 | 0.00 | 0.00 | 49 | 1010.5 |
| 20260904214332 | 17 | 118 | 6.4 | 17.7 | 0.00 | 0.00 | 0.00 | 49 | 1010.5 |
| 20260904213826 | 17 | 90 | 6.4 | 19.3 | 0.00 | 0.00 | 0.00 | 49 | 1010.5 |
| 20260904213319 | 16 | 92 | 6.4 | 19.3 | 0.00 | 0.00 | 0.00 | 49 | 1010.4 |
| 20260904213044 | 16 | 64 | 6.4 | 16.1 | 0.00 | 0.00 | 0.00 | 50 | 1010.4 |
| 20260904212307 | 16 | 173 | 6.4 | 16.1 | 0.00 | 0.00 | 0.00 | 51 | 1010.5 |
| 20260904211804 | 16 | 96 | 6.4 | 16.1 | 0.00 | 0.00 | 0.00 | 50 | 1010.4 |
| 20260904211300 | 16 | 152 | 6.4 | 16.1 | 0.00 | 0.00 | 0.00 | 50 | 1010.5 |
| 20260904210800 | 16 | 137 | 4.8 | 16.1 | 0.00 | 0.00 | 0.00 | 50 | 1010.5 |
| 20260904210541 | 16 | 116 | 6.4 | 16.1 | 0.00 | 0.00 | 0.00 | 51 | 1010.5 |
| 20260904205755 | 16 | 165 | 8.0 | 20.9 | 0.00 | 0.00 | 0.00 | 51 | 1010.5 |
| 20260904205255 | 16 | 133 | 8.0 | 20.9 | 0.00 | 0.00 | 0.00 | 51 | 1010.6 |
| 20260904204754 | 15 | 82 | 8.0 | 19.3 | 0.00 | 0.00 | 0.00 | 55 | 1010.5 |
| 20260904204254 | 15 | 124 | 8.0 | 19.3 | 0.00 | 0.00 | 0.00 | 56 | 1010.6 |
| 20260904203755 | 14 | 111 | 6.4 | 16.1 | 0.00 | 0.00 | 0.00 | 56 | 1010.6 |
| 20260904203255 | 14 | 143 | 6.4 | 16.1 | 0.00 | 0.00 | 0.00 | 55 | 1010.6 |
| 20260904202754 | 14 | 150 | 6.4 | 19.3 | 0.00 | 0.00 | 0.00 | 55 | 1010.6 |
| 20260904202255 | 14 | 200 | 8.0 | 19.3 | 0.00 | 0.00 | 0.00 | 54 | 1010.6 |
| 20260904201754 | 15 | 198 | 6.4 | 16.1 | 0.00 | 0.00 | 0.00 | 54 | 1010.7 |
| 20260904201254 | 15 | 148 | 6.4 | 19.3 | 0.00 | 0.00 | 0.00 | 55 | 1010.6 |
| 20260904200754 | 14 | 146 | 4.8 | 19.3 | 0.00 | 0.00 | 0.00 | 54 | 1010.8 |
| 20260904200254 | 14 | 142 | 6.4 | 19.3 | 0.00 | 0.00 | 0.00 | 55 | 1010.8 |
| 20260904200016 | 14 | 127 | 8.0 | 19.3 | 0.00 | 0.00 | 0.00 | 55 | 1010.9 |
| 20260904195754 | 14 | 127 | 8.0 | 19.3 | 0.00 | 0.00 | 0.00 | 55 | 1010.9 |
| 20260904195254 | 14 | 126 | 6.4 | 16.1 | 0.00 | 0.00 | 0.00 | 55 | 1011.0 |
| 20260904194751 | 14 | 117 | 6.4 | 16.1 | 0.00 | 0.00 | 0.00 | 54 | 1010.9 |
| 20260904194255 | 14 | 156 | 6.4 | 19.3 | 0.00 | 0.00 | 0.00 | 56 | 1011.0 |
| 20260904194017 | 13 | 169 | 8.0 | 19.3 | 0.00 | 0.00 | 0.00 | 57 | 1011.1 |
| 20260904193754 | 13 | 169 | 8.0 | 19.3 | 0.00 | 0.00 | 0.00 | 57 | 1011.1 |
| 20260904193252 | 13 | 136 | 6.4 | 17.7 | 0.00 | 0.00 | 0.00 | 57 | 1011.1 |
| 20260904193017 | 13 | 120 | 8.0 | 20.9 | 0.00 | 0.00 | 0.00 | 58 | 1011.1 |
| 20260904192253 | 13 | 147 | 9.7 | 20.9 | 0.00 | 0.00 | 0.00 | 57 | 1011.1 |
| 20260904191754 | 13 | 215 | 9.7 | 20.9 | 0.00 | 0.00 | 0.00 | 57 | 1011.1 |
| 20260904191337 | 13 | 207 | 8.0 | 20.9 | 0.00 | 0.00 | 0.00 | 59 | 1011.0 |
| 20260904191324 | 13 | 196 | 8.0 | 20.9 | 0.00 | 0.00 | 0.00 | 58 | 1011.0 |
| 20260904191053 | 13 | 212 | 8.0 | 24.1 | 0.00 | 0.00 | 0.00 | 59 | 1011.0 |
| 20260904185800 | 13 | 176 | 8.0 | 24.1 | 0.00 | 0.00 | 0.00 | 56 | 1011.0 |
| 20260904185256 | 13 | 156 | 8.0 | 17.7 | 0.00 | 0.00 | 0.00 | 56 | 1011.0 |
| 20260904184748 | 13 | 156 | 8.0 | 19.3 | 0.00 | 0.00 | 0.00 | 56 | 1011.0 |
| 20260904184248 | 14 | 198 | 8.0 | 19.3 | 0.00 | 0.00 | 0.00 | 55 | 1011.0 |
| 20260904183749 | 14 | 167 | 9.7 | 19.3 | 0.00 | 0.00 | 0.00 | 54 | 1010.9 |
| 20260904183249 | 14 | 144 | 8.0 | 19.3 | 0.00 | 0.00 | 0.00 | 53 | 1010.8 |
| 20260904182753 | 15 | 147 | 4.8 | 16.1 | 0.00 | 0.00 | 0.00 | 54 | 1010.7 |
| 20260904182509 | 15 | 211 | 4.8 | 19.3 | 0.00 | 0.00 | 0.00 | 55 | 1010.6 |
| 20260904182310 | 15 | 211 | 4.8 | 19.3 | 0.00 | 0.00 | 0.00 | 55 | 1010.6 |
| 20260904181745 | 15 | 198 | 4.8 | 19.3 | 0.00 | 0.00 | 0.00 | 55 | 1010.6 |
| 20260904181237 | 15 | 197 | 4.8 | 16.1 | 0.00 | 0.00 | 0.00 | 56 | 1010.6 |
| 20260904180730 | 14 | 146 | 6.4 | 16.1 | 0.00 | 0.00 | 0.00 | 55 | 1010.6 |
| 20260904180224 | 14 | 123 | 4.8 | 16.1 | 0.00 | 0.00 | 0.00 | 57 | 1010.5 |
| 20260904175720 | 13 | 127 | 1.6 | 8.0 | 0.00 | 0.00 | 0.00 | 59 | 1010.6 |
| 20260904175215 | 13 | 238 | 1.6 | 6.4 | 0.00 | 0.00 | 0.00 | 61 | 1010.7 |
| 20260904175210 | 12 | 326 | 1.6 | 4.8 | 0.00 | 0.00 | 0.00 | 61 | 1010.6 |
| 20260904174953 | 12 | 326 | 1.6 | 4.8 | 0.00 | 0.00 | 0.00 | 61 | 1010.6 |
| 20260904174200 | 12 | 326 | 3.2 | 6.4 | 0.00 | 0.00 | 0.00 | 61 | 1010.6 |
| 20260904173721 | 13 | 267 | 4.8 | 12.9 | 0.00 | 0.00 | 0.00 | 61 | 1010.4 |
| 20260904173708 | 12 | 325 | 3.2 | 11.3 | 0.00 | 0.00 | 0.00 | 61 | 1010.6 |
| 20260904172642 | 13 | 305 | 3.2 | 12.9 | 0.00 | 0.00 | 0.00 | 63 | 1010.5 |
| 20260904172136 | 13 | 310 | 3.2 | 6.4 | 0.00 | 0.00 | 0.00 | 62 | 1010.5 |
| 20260904171630 | 12 | 309 | 1.6 | 9.7 | 0.00 | 0.00 | 0.00 | 62 | 1010.6 |
| 20260904171124 | 13 | 286 | 0.0 | 9.7 | 0.00 | 0.00 | 0.00 | 61 | 1010.6 |
| 20260904170618 | 13 | 317 | 1.6 | 6.4 | 0.00 | 0.00 | 0.00 | 59 | 1010.5 |
| 20260904170112 | 13 | 317 | 1.6 | 6.4 | 0.00 | 0.00 | 0.00 | 61 | 1010.5 |
| 20260904165606 | 13 | 122 | 1.6 | 6.4 | 0.00 | 0.00 | 0.00 | 60 | 1010.5 |
| 20260904165100 | 12 | 125 | 1.6 | 6.4 | 0.00 | 0.00 | 0.00 | 63 | 1010.5 |
| 20260904164555 | 12 | 114 | 0.0 | 6.4 | 0.00 | 0.00 | 0.00 | 63 | 1010.5 |
| 20260904164053 | 12 | 24 | 0.0 | 4.8 | 0.00 | 0.00 | 0.00 | 63 | 1010.4 |
| 20260904163542 | 12 | 5 | 1.6 | 4.8 | 0.00 | 0.00 | 0.00 | 65 | 1010.3 |
| 20260904163036 | 11 | 355 | 1.6 | 4.8 | 0.00 | 0.00 | 0.00 | 66 | 1010.3 |
| 20260904162530 | 11 | 140 | 1.6 | 4.8 | 0.00 | 0.00 | 0.00 | 66 | 1010.2 |
| 20260904162024 | 11 | 140 | 0.0 | 4.8 | 0.00 | 0.00 | 0.00 | 68 | 1010.1 |
| 20260904161519 | 11 | 132 | 0.0 | 3.2 | 0.00 | 0.00 | 0.00 | 67 | 1010.2 |
| 20260904161012 | 11 | 125 | 0.0 | 4.8 | 0.00 | 0.00 | 0.00 | 67 | 1010.2 |
| 20260904160506 | 11 | 125 | 0.0 | 4.8 | 0.00 | 0.00 | 0.00 | 67 | 1010.2 |
| 20260904160000 | 11 | 124 | 1.6 | 4.8 | 0.00 | 0.00 | 0.00 | 67 | 1010.2 |
| 20260904155454 | 11 | 124 | 0.0 | 4.8 | 0.00 | 0.00 | 0.00 | 67 | 1010.1 |
| 20260904154948 | 10 | 124 | 0.0 | 4.8 | 0.00 | 0.00 | 0.00 | 67 | 1010.2 |
| 20260904154720 | 10 | 123 | 1.6 | 4.8 | 0.00 | 0.00 | 0.00 | 67 | 1010.2 |
| 20260904154213 | 10 | 124 | 1.6 | 4.8 | 0.00 | 0.00 | 0.00 | 68 | 1010.1 |
| 20260904153434 | 10 | 131 | 1.6 | 4.8 | 0.00 | 0.00 | 0.00 | 68 | 1010.3 |
| 20260904152926 | 10 | 134 | 1.6 | 4.8 | 0.00 | 0.00 | 0.00 | 67 | 1010.2 |
| 20260904152417 | 10 | 134 | 1.6 | 6.4 | 0.00 | 0.00 | 0.00 | 69 | 1010.3 |
| 20260904151912 | 10 | 134 | 3.2 | 6.4 | 0.00 | 0.00 | 0.00 | 70 | 1010.2 |
| 20260904151412 | 9 | 126 | 1.6 | 6.4 | 0.00 | 0.00 | 0.00 | 69 | 1010.1 |
| 20260904150912 | 9 | 144 | 3.2 | 8.0 | 0.00 | 0.00 | 0.00 | 69 | 1010.1 |
| 20260904150412 | 9 | 143 | 3.2 | 8.0 | 0.00 | 0.00 | 0.00 | 71 | 1009.9 |
| 20260904145912 | 8 | 178 | 3.2 | 8.0 | 0.00 | 0.00 | 0.00 | 71 | 1009.9 |
| 20260904145415 | 8 | 201 | 3.2 | 9.7 | 0.00 | 0.00 | 0.00 | 71 | 1009.7 |
| 20260904144912 | 8 | 146 | 3.2 | 9.7 | 0.00 | 0.00 | 0.00 | 73 | 1009.6 |
| 20260904144411 | 8 | 146 | 3.2 | 9.7 | 0.00 | 0.00 | 0.00 | 74 | 1009.5 |
| 20260904143912 | 7 | 139 | 3.2 | 9.7 | 0.00 | 0.00 | 0.00 | 75 | 1009.5 |
| 20260904143411 | 7 | 142 | 3.2 | 9.7 | 0.00 | 0.00 | 0.00 | 76 | 1009.4 |
| 20260904142912 | 7 | 144 | 4.8 | 9.7 | 0.00 | 0.00 | 0.00 | 77 | 1009.5 |
| 20260904142408 | 6 | 129 | 3.2 | 8.0 | 0.00 | 0.00 | 0.00 | 77 | 1009.5 |
| 20260904141907 | 6 | 146 | 1.6 | 8.0 | 0.00 | 0.00 | 0.00 | 78 | 1009.5 |
| 20260904141654 | 6 | 150 | 1.6 | 8.0 | 0.00 | 0.00 | 0.00 | 78 | 1009.3 |
| 20260904140909 | 6 | 150 | 1.6 | 8.0 | 0.00 | 0.00 | 0.00 | 78 | 1009.3 |
| 20260904140408 | 6 | 151 | 3.2 | 8.0 | 0.00 | 0.00 | 0.00 | 78 | 1009.3 |
| 20260904140148 | 6 | 149 | 4.8 | 11.3 | 0.00 | 0.00 | 0.00 | 79 | 1009.2 |
| 20260904135417 | 6 | 136 | 1.6 | 11.3 | 0.00 | 0.00 | 0.00 | 79 | 1009.2 |
| 20260904134919 | 6 | 144 | 1.6 | 4.8 | 0.00 | 0.00 | 0.00 | 80 | 1009.2 |
| 20260904134419 | 6 | 142 | 1.6 | 6.4 | 0.00 | 0.00 | 0.00 | 80 | 1009.1 |
| 20260904134138 | 6 | 142 | 3.2 | 6.4 | 0.00 | 0.00 | 0.00 | 80 | 1009.0 |
| 20260904133404 | 6 | 146 | 1.6 | 4.8 | 0.00 | 0.00 | 0.00 | 80 | 1008.9 |
| 20260904132906 | 6 | 146 | 0.0 | 3.2 | 0.00 | 0.00 | 0.00 | 79 | 1008.9 |
| 20260904132354 | 6 | 146 | 0.0 | 0.0 | 0.00 | 0.00 | 0.00 | 78 | 1008.7 |
| 20260904131845 | 6 | 146 | 0.0 | 0.0 | 0.00 | 0.00 | 0.00 | 78 | 1008.9 |
| 20260904131613 | 6 | 146 | 0.0 | 0.0 | 0.00 | 0.00 | 0.00 | 78 | 1008.9 |
| 20260904131104 | 6 | 146 | 0.0 | 0.0 | 0.00 | 0.00 | 0.00 | 78 | 1009.0 |
| 20260904130328 | 6 | 146 | 0.0 | 6.4 | 0.00 | 0.00 | 0.00 | 77 | 1009.0 |
| 20260904125822 | 6 | 146 | 1.6 | 6.4 | 0.00 | 0.00 | 0.00 | 77 | 1008.7 |
| 20260904125316 | 7 | 146 | 1.6 | 8.0 | 0.00 | 0.00 | 0.00 | 77 | 1008.7 |
| 20260904124811 | 7 | 146 | 3.2 | 8.0 | 0.00 | 0.00 | 0.00 | 77 | 1008.6 |
| 20260904124305 | 6 | 161 | 1.6 | 6.4 | 0.00 | 0.00 | 0.00 | 77 | 1008.7 |
| 20260904123800 | 6 | 150 | 1.6 | 6.4 | 0.00 | 0.00 | 0.00 | 78 | 1008.7 |
| 20260904123253 | 6 | 141 | 1.6 | 6.4 | 0.00 | 0.00 | 0.00 | 78 | 1008.7 |
| 20260904123019 | 6 | 152 | 1.6 | 4.8 | 0.00 | 0.00 | 0.00 | 78 | 1008.7 |
| 20260904122242 | 6 | 146 | 1.6 | 4.8 | 0.00 | 0.00 | 0.00 | 79 | 1008.7 |
| 20260904121733 | 6 | 146 | 1.6 | 4.8 | 0.00 | 0.00 | 0.00 | 78 | 1008.7 |
| 20260904121226 | 7 | 144 | 1.6 | 4.8 | 0.00 | 0.00 | 0.00 | 78 | 1008.6 |